Location: Sternwarte auf dem Internationalen Platz Vogelsang IP
(50.5721°N, 6.4398°E)
Time: 04:44:49
(UTC+01:00)

Transit 2A Rocket - Pass Details

Date: 19 December 2025
Orbit: 581 x 903 km, 66.7° (Epoch: 13 January)

Event Time Altitude Azimuth Distance (km) Brightness Sun altitude
Rises 08:44:15 0° 234° (SW) 3,357 8.2 0.7°
Reaches altitude 10° 08:46:42 10° 240° (WSW) 2,467 7.5 1.0°
Maximum altitude 08:52:20 52° 316° (NW) 1,089 5.5 1.7°
Drops below altitude 10° 08:58:15 10° 33° (NNE) 2,588 7.7 2.4°
Sets 09:00:53 0° 38° (NE) 3,535 8.4 2.7°
